Weather in Sukhoy Log

Russia / Belgorod Oblast     50°48′38″N   36°00′37″E
temp.,
°C
wind,
m/s
gust,
m/s
humid.,
%
clouds,
%
prec.,
mm/h
press.,
hPa
HPBL,
m
14 june, mon
mon1400:00+16ssw118870 0.0 101011
03:00+14sse22905 0.0 101115
06:00+15ese23905 0.0 101270
09:00+20se34775 0.0 1013445
12:00+23sse226683 2.4 1013788
15:00+23e116572 5.7 1014823
18:00+23nne226830 0.1 1013687
21:00+19nne228290 0.5 101411
15 june, tue
tue1500:00+17nne228910 0.0 101416
03:00+16nne22915 0.1 101417
06:00+17nne23925 0.0 101379
09:00+21nne34780 0.0 1013479
12:00+24ne44664 0.2 10121275
15:00+25ene346584 2.3 10111321
18:00+23ene2378100 2.1 1010326
21:00+19e118582 2.4 101111
16 june, wed
wed1600:00+18nne228814 0.0 101017
03:00+17e11908 0.0 101111
06:00+18n22925 0.0 101164
09:00+22ene227816 0.1 1011434
12:00+23ne237598 7.6 1012274
15:00+25nnw336676 8.4 10121209
18:00+23nne588476 1.3 1013505
21:00+19ne5119221 4.7 1014306
17 june, thu
thu1700:00+18ne51395100 1.4 1015392
03:00+17ne6139552 1.4 1016367
06:00+16ne613955 0.0 1017415
09:00+20ene711810 0.0 1018695
12:00+22ene797014 0.0 10191164
15:00+23ne786825 0.0 10201432
18:00+21ne711750 0.0 10191010
21:00+17ene513780 0.0 1022431
18 june, fri
fri1800:00+15ne514850 0.0 1022381
03:00+13ne513890 0.0 1023323
06:00+14ene514860 0.0 1024416
09:00+18e712700 0.0 1024780
12:00+21e79640 0.0 10251160
15:00+21e78610 0.0 10241345
18:00+21e58720 0.0 10241178
21:00+16ene49870 0.0 1025166